When you browse on this site, cookies collect data to enhance your experience and personalize the content and advertising you see.
Visit our Privacy Policy to learn more. By continuing to use the site, you agree to this use of cookies and data.
  • In Austria
  • List of Countries
  • For 7 days
  • Water Temperature
  • Weather Map
  • News
  • Weather Widgets
  • user-avatar
    Login

    Hourly Weather Canillo

    Today, 6 December, Friday

    Time Temperature Precipitation Wind Pressure Humidity
    00:00 0°C° 0 mm 1 mps 619 mmHg 92%
    01:00 0°C° 0 mm 1 mps 618 mmHg 91%
    02:00 0°C° 0 mm 1 mps 618 mmHg 90%
    03:00 0°C° 0 mm 1 mps 618 mmHg 89%
    04:00 0°C° 0 mm 1 mps 618 mmHg 89%
    05:00 0°C° 0 mm 1 mps 618 mmHg 89%
    06:00 0°C° 0 mm 1 mps 618 mmHg 89%
    07:00 +1°C° 0 mm 1 mps 619 mmHg 86%
    08:00 +2°C° 0 mm 1 mps 620 mmHg 84%
    09:00 +2°C° 0 mm 0 mps 620 mmHg 81%
    10:00 +3°C° 0 mm 0 mps 620 mmHg 78%
    11:00 +6°C° 0 mm 1 mps 621 mmHg 75%
    12:00 +7°C° 0 mm 1 mps 621 mmHg 73%
    13:00 +6°C° 0 mm 1 mps 620 mmHg 76%
    14:00 +6°C° 0 mm 1 mps 620 mmHg 80%
    15:00 +5°C° 0 mm 1 mps 619 mmHg 83%
    16:00 +4°C° 0 mm 1 mps 619 mmHg 86%
    17:00 +3°C° 0 mm 1 mps 618 mmHg 89%
    18:00 +1°C° 0 mm 1 mps 618 mmHg 92%
    19:00 +1°C° 0 mm 1 mps 618 mmHg 91%
    20:00 +1°C° 0 mm 1 mps 618 mmHg 89%
    21:00 +1°C° 0 mm 1 mps 618 mmHg 88%
    22:00 +1°C° 0 mm 1 mps 618 mmHg 87%
    23:00 +1°C° 0 mm 1 mps 619 mmHg 87%

    Tomorrow, 7 December, Saturday

    Time Temperature Precipitation Wind Pressure Humidity
    00:00 +1°C° 0 mm 1 mps 619 mmHg 86%
    01:00 +1°C° 0 mm 1 mps 618 mmHg 84%
    02:00 0°C° 0 mm 1 mps 618 mmHg 83%
    03:00 0°C° 0 mm 1 mps 618 mmHg 81%
    04:00 0°C° 0 mm 1 mps 618 mmHg 81%
    05:00 0°C° 0 mm 1 mps 618 mmHg 81%
    06:00 0°C° 0 mm 1 mps 618 mmHg 81%
    07:00 +1°C° 0 mm 1 mps 619 mmHg 78%
    08:00 +3°C° 0 mm 1 mps 620 mmHg 75%
    09:00 +4°C° 0 mm 1 mps 620 mmHg 72%
    10:00 +5°C° 0 mm 1 mps 621 mmHg 70%
    11:00 +6°C° 0 mm 1 mps 621 mmHg 68%
    12:00 +7°C° 0 mm 1 mps 621 mmHg 66%
    13:00 +7°C° 0 mm 1 mps 621 mmHg 70%
    14:00 +6°C° 0 mm 1 mps 620 mmHg 74%
    15:00 +6°C° 0 mm 1 mps 620 mmHg 78%
    16:00 +4°C° 0 mm 1 mps 620 mmHg 82%
    17:00 +3°C° 0 mm 1 mps 619 mmHg 86%
    18:00 +1°C° 0 mm 1 mps 619 mmHg 91%
    19:00 +1°C° 0 mm 1 mps 619 mmHg 88%
    20:00 +1°C° 0 mm 1 mps 619 mmHg 86%
    21:00 +1°C° 0 mm 1 mps 619 mmHg 84%
    22:00 +1°C° 0 mm 1 mps 619 mmHg 78%
    23:00 +1°C° 0 mm 1 mps 619 mmHg 73%

    Day after tomorrow, 8 December, Sunday

    Time Temperature Precipitation Wind Pressure Humidity
    00:00 0°C° 0 mm 1 mps 619 mmHg 67%
    01:00 0°C° 0 mm 1 mps 619 mmHg 64%
    02:00 0°C° 0 mm 1 mps 618 mmHg 61%
    03:00 0°C° 0 mm 1 mps 618 mmHg 58%
    04:00 0°C° 0 mm 1 mps 618 mmHg 57%
    05:00 0°C° 0 mm 1 mps 618 mmHg 56%
    06:00 0°C° 0 mm 1 mps 618 mmHg 54%
    07:00 +2°C° 0 mm 1 mps 619 mmHg 53%
    08:00 +3°C° 0 mm 1 mps 620 mmHg 51%
    09:00 +5°C° 0 mm 1 mps 620 mmHg 50%
    10:00 +6°C° 0 mm 1 mps 621 mmHg 49%
    11:00 +7°C° 0 mm 1 mps 621 mmHg 48%
    12:00 +9°C° 0 mm 1 mps 621 mmHg 47%
    13:00 +8°C° 0 mm 1 mps 620 mmHg 53%
    14:00 +7°C° 0 mm 1 mps 620 mmHg 59%
    15:00 +7°C° 0 mm 1 mps 619 mmHg 65%
    16:00 +6°C° 0.5 mm 1 mps 619 mmHg 72%
    17:00 +5°C° 0.5 mm 1 mps 619 mmHg 80%
    18:00 +3°C° 0.5 mm 2 mps 619 mmHg 87%
    19:00 +3°C° 0.4 mm 2 mps 619 mmHg 89%
    20:00 +3°C° 0.4 mm 2 mps 619 mmHg 91%
    21:00 +3°C° 0.4 mm 2 mps 619 mmHg 93%
    22:00 +3°C° 0 mm 2 mps 619 mmHg 92%
    23:00 +2°C° 0 mm 2 mps 619 mmHg 92%

    9 December, Monday

    Time Temperature Precipitation Wind Pressure Humidity
    00:00 +2°C° 0 mm 2 mps 619 mmHg 92%
    01:00 +1°C° 0 mm 2 mps 619 mmHg 86%
    02:00 -1°C° 0 mm 2 mps 618 mmHg 80%
    03:00 -1°C° 0 mm 2 mps 618 mmHg 74%
    04:00 -2°C° 0 mm 2 mps 618 mmHg 72%
    05:00 -2°C° 0 mm 2 mps 617 mmHg 70%
    06:00 -2°C° 0 mm 2 mps 617 mmHg 67%
    07:00 -1°C° 0 mm 2 mps 618 mmHg 66%
    08:00 +1°C° 0 mm 2 mps 618 mmHg 64%
    09:00 +1°C° 0 mm 2 mps 618 mmHg 62%
    10:00 +1°C° 0.1 mm 3 mps 619 mmHg 61%
    11:00 +2°C° 0.1 mm 3 mps 619 mmHg 60%
    12:00 +1°C° 0.1 mm 4 mps 619 mmHg 59%
    13:00 +1°C° 0.4 mm 4 mps 619 mmHg 66%
    14:00 0°C° 0.4 mm 4 mps 618 mmHg 72%
    15:00 -1°C° 0.4 mm 4 mps 618 mmHg 79%
    16:00 -2°C° 0.6 mm 4 mps 618 mmHg 83%
    17:00 -3°C° 0.6 mm 4 mps 618 mmHg 87%
    18:00 -3°C° 0.6 mm 4 mps 618 mmHg 90%
    19:00 -3°C° 0.2 mm 4 mps 619 mmHg 90%
    20:00 -3°C° 0.2 mm 4 mps 619 mmHg 89%
    21:00 -3°C° 0.2 mm 4 mps 620 mmHg 88%
    22:00 -4°C° 0 mm 4 mps 620 mmHg 86%
    23:00 -4°C° 0 mm 4 mps 620 mmHg 85%

    10 December, Tuesday

    Time Temperature Precipitation Wind Pressure Humidity
    00:00 -4°C° 0 mm 4 mps 620 mmHg 84%
    01:00 -5°C° 0 mm 3 mps 620 mmHg 82%
    02:00 -5°C° 0 mm 3 mps 620 mmHg 80%
    03:00 -5°C° 0 mm 3 mps 619 mmHg 78%
    04:00 -5°C° 0 mm 3 mps 619 mmHg 74%
    05:00 -5°C° 0 mm 3 mps 619 mmHg 71%
    06:00 -4°C° 0 mm 2 mps 619 mmHg 67%
    07:00 -2°C° 0 mm 2 mps 620 mmHg 62%
    08:00 -1°C° 0 mm 2 mps 621 mmHg 56%
    09:00 +2°C° 0 mm 2 mps 622 mmHg 51%
    10:00 +4°C° 0 mm 1 mps 622 mmHg 51%
    11:00 +6°C° 0 mm 1 mps 622 mmHg 51%
    12:00 +7°C° 0 mm 1 mps 622 mmHg 50%
    13:00 +6°C° 0 mm 1 mps 622 mmHg 56%
    14:00 +6°C° 0 mm 1 mps 621 mmHg 61%
    15:00 +5°C° 0 mm 1 mps 620 mmHg 66%
    16:00 +4°C° 0 mm 1 mps 620 mmHg 61%
    17:00 +4°C° 0 mm 1 mps 619 mmHg 56%
    18:00 +2°C° 0 mm 2 mps 619 mmHg 51%
    19:00 +2°C° 0 mm 2 mps 619 mmHg 50%
    20:00 +2°C° 0 mm 2 mps 619 mmHg 50%
    21:00 +2°C° 0 mm 2 mps 619 mmHg 49%
    22:00 +3°C° 0 mm 1 mps 618 mmHg 52%
    23:00 +3°C° 0 mm 1 mps 618 mmHg 56%

    11 December, Wednesday

    Time Temperature Precipitation Wind Pressure Humidity
    00:00 +3°C° 0 mm 1 mps 618 mmHg 59%
    01:00 +3°C° 0 mm 1 mps 618 mmHg 62%
    02:00 +3°C° 0 mm 1 mps 617 mmHg 66%
    03:00 +2°C° 0 mm 1 mps 617 mmHg 70%
    04:00 +2°C° 0 mm 1 mps 617 mmHg 71%
    05:00 +1°C° 0 mm 1 mps 617 mmHg 72%
    06:00 -1°C° 0 mm 2 mps 617 mmHg 72%
    07:00 +1°C° 0 mm 1 mps 617 mmHg 69%
    08:00 +2°C° 0 mm 1 mps 618 mmHg 66%
    09:00 +3°C° 0 mm 1 mps 618 mmHg 62%
    10:00 +4°C° 0 mm 1 mps 618 mmHg 64%
    11:00 +5°C° 0 mm 1 mps 619 mmHg 66%
    12:00 +5°C° 0 mm 1 mps 619 mmHg 68%
    13:00 +5°C° 0 mm 1 mps 618 mmHg 72%
    14:00 +4°C° 0 mm 1 mps 618 mmHg 77%
    15:00 +4°C° 0 mm 1 mps 618 mmHg 82%
    16:00 +3°C° 0 mm 1 mps 617 mmHg 85%
    17:00 +1°C° 0 mm 1 mps 617 mmHg 89%
    18:00 0°C° 0 mm 1 mps 617 mmHg 93%
    19:00 0°C° 0 mm 1 mps 617 mmHg 93%
    20:00 0°C° 0 mm 1 mps 617 mmHg 93%
    21:00 -1°C° 0 mm 1 mps 617 mmHg 93%
    22:00 -1°C° 0 mm 1 mps 616 mmHg 91%
    23:00 -2°C° 0 mm 1 mps 616 mmHg 90%
    Show more